User: anonymous   Login
Location: Isola Pescaroli
(45.0500°N, 10.1667°E)
Time: 06:12:41
(UTC+00:00)
Language:

Resurs 1-3 - Orbit

View from above orbital plane
View from above orbital plane
View from above satellite
View from above satellite

Ground track
Ground track

The orbit data is extracted from the following two-line orbital elements,

1 23342U 94074A   21134.09775037  .00000155  00000-0  27669-4 0  9992
2 23342  97.8804 183.6208 0002060  71.1816 288.9619 14.79416307428472
Epoch (UTC): 14 May 2021 02:20:45
Eccentricity: 0.0002060
inclination: 97.8804°
perigee height: 630 km
apogee height: 632 km
right ascension of ascending node: 183.6208°
argument of perigee: 71.1816°
revolutions per day: 14.79416307
mean anomaly at epoch: 288.9619°
orbit number at epoch: 42847

The dashed part of the orbit path shows where the satellite is in the earth's shadow,  

DLR